Погода в Фуэрте-Олимпо

Парагвай     21°02′05″S   57°52′30″W
темп.,
°C
ветер,
м/с
пор.,
м/с
влажн.,
%
обл.,
%
осадки,
мм/ч
давл.,
гПа
погр.,
м
1 марта, пн
пн100:00+26в23600 0.0 100759
03:00+24в12710 0.0 100624
06:00+23ю11780 0.0 100623
09:00+29в11590 0.0 1008304
12:00+38ссв11370 0.0 10071715
15:00+36в113724 0.0 10042150
18:00+33вюв234685 0.0 1003312
21:00+28всв296359 0.0 1005294
2 марта, вт
вт200:00+25всв28812 0.5 1007249
03:00+23св25899 0.6 1007180
06:00+23св22930 0.0 100776
09:00+27ссв25730 0.0 1009434
12:00+35с22460 0.0 10091594
15:00+34с324726 0.0 10051727
18:00+33вюв124964 0.0 1005551
21:00+27всв247948 0.2 1007103
3 марта, ср
ср300:00+24всв25900 1.2 1009108
03:00+23св12920 1.9 100931
06:00+22св29970 0.9 1009269
09:00+26св37860 0.9 1011419
12:00+34с45480 0.0 10101481
15:00+34ссв344422 0.0 10072044
18:00+33св444926 0.0 10051261
21:00+26ссв4117914 0.5 1008465
4 марта, чт
чт400:00+24св279287 0.6 1010271
03:00+24ссв3109363 0.8 1009525
06:00+22ссв3109711 4.5 1010399
09:00+25ссв4108919 6.4 1011639
12:00+28с4783100 3.8 1010800
15:00+31с366480 9.5 10071148
18:00+31ссв3562100 1.9 1005761
21:00+25с5139290 10.7 1008542
5 марта, пт
пт500:00+22св2398100 6.8 1009179
03:00+22св1197100 8.2 100844
06:00+22св0198100 0.1 100736
09:00+23зсз1296100 0.3 1010185
12:00+24з1294100 2.3 1009236
15:00+28зсз3472100 2.7 1006914
18:00+26с2492100 3.3 1005261
21:00+23с239567 4.6 100680